Regional Weather Roundup
Issued by NWS Newport/Morehead, NC

Current Version | Previous Version | Graphics & Text | Print | Product List | Glossary Off
Versions: 1 2 3 4 5 6 7 8 9 10 11 12 13 14 15 16 17 18 19 20 21 22 23 24 25 26 27 28 29 30 31 32 33 34 35 36 37 38 39 40 41 42 43 44 45 46 47 48 49 50

000
ASUS42 KMHX 280725
RWRMHX
WEATHER ROUNDUP FOR EASTERN NORTH CAROLINA
NATIONAL WEATHER SERVICE NEWPORT/MOREHEAD CITY NC
300 AM EDT FRI JUL 28 2017

NOTE: "FAIR" INDICATES FEW OR NO CLOUDS BELOW 12,000 FEET
WITH NO SIGNIFICANT WEATHER AND/OR OBSTRUCTIONS TO VISIBILITY

NCZ015>017-031-032-045>047-102-103-280800-
NORTH COAST

CITY           SKY/WX    TMP DP  RH WIND       PRES   REMARKS
EDENTON        CLOUDY    79  74  83 CALM      29.90S
ELIZABETH CITY CLOUDY    79  74  84 SW12G22   29.88F
KITTY HAWK     CLOUDY    78  69  74 SW8       29.87F
MANTEO         CLOUDY    78  71  77 SW15      29.89F

$$

NCZ045>047-081-094-103-104-280800-
CENTRAL COAST

CITY           SKY/WX    TMP DP  RH WIND       PRES   REMARKS
FRISCO         CLOUDY    80  73  79 SW13      29.91F

$$

NCZ095-097-098-100-101-280800-
SOUTHERN COAST

CITY           SKY/WX    TMP DP  RH WIND       PRES   REMARKS
BEAUFORT       PTCLDY    81  76  84 S13       29.90F
CEDAR ISLAND   NOT AVBL
JACKSONVILLE   MOCLDY    76  75  97 S5        29.90F
PINEY ISLAND   PTSUNNY  N/A N/A N/A S7        29.90F
WILMINGTON     CLEAR     76  74  93 S6        29.91F


$$

NCZ011>013-027>030-043-044-078>080-089-090>093-098-280800-
COASTAL PLAIN

CITY           SKY/WX    TMP DP  RH WIND       PRES   REMARKS
AHOSKIE          N/A     75  72  88 S5        29.88S
CLINTON        CLOUDY    74  74  99 CALM      29.90F
ELIZABETHTOWN  NOT AVBL
GOLDSBORO      NOT AVBL
GREENVILLE     CLOUDY    77  73  88 SW7       29.91S
HAVELOCK       CLOUDY    78  73  84 S5        29.91F
KENANSVILLE    CLOUDY    75  73  94 CALM      29.91R
KINSTON        CLOUDY    77  73  87 SW5       29.90F
NEW BERN       CLOUDY    76  75  97 S6        29.91F
RICHLANDS      CLOUDY    75  73  93 S7        29.91F
ROCKY MOUNT    CLOUDY    75  73  93 S5        29.88F
WASHINGTON     MOCLDY    76  73  89 SW5       29.90S
WHITEVILLE     CLEAR     75  73  95 CALM      29.91S

$$

AMZ130-135-150-152-154-156-158-170-250-252-270-ANZ085-086-088-633-658-670-280800-
MARINE OBSERVATIONS

STATION/POSITION TIME  TEMP    WIND        PRES    WAVE   SWELL
                       AIR SEA DIR/SP/G            HT/PER HT/PER
                 (UTC) (F)     (DEG/KT/KT) (MB)    (FT/S) (FT/S)
CHESAPEAKE LIGHT NOT AVBL
64 E VA BEACH    0650   78 77  220/ 16/ 19 1011.5    4/ 5   2/ 8
DUCK             0700   80 67  210/ 13/ 18 1011.2
2 E DUCK         0700      70                N/A     2/ 9
OREGON INLET     0700   80 80  200/ 18/ 23 1011.9
13E OREGON INLT  0648      77                N/A     3/ 9   2/ 9
HATTERAS CG      0700   80 80  200/  8/ 13 1012.4
DIAMOND BUOY     0650   81 83  210/ 19/ 21 1012.7    3/ 4   2/ 8
CAPE LOOKOUT     0700   80     190/ 12/ 14 1012.4
BEAUFORT LAB     0700   81 80  210/  9/ 12 1011.9
30 SE NEW RVR IN 0708   81 84  240/ 14/ 17 1012.9
30 SE NEW RVR IN 0713      83                N/A     3/ 3
27 SE WRIGHTSVLE 0708   81 83  210/ 12/ 17 1012.8
5 SE WRIGHTSVLE  0708   81 82  220/ 12/ 17 1012.6
225 S CAPE HAT   0650   82 83  260/ 10/ 12 1014.7    3/ 8   2/ 8
41 SE CHARLESTON 0700   79 81  210/  4/  6 1012.5

$$



USA.gov is the U.S. government's official web portal to all federal, state and local government web resources and services.